No particular awareness of the weather is required.    There are no Weather-warnings


Meteo18 Weather Cam more information Meteo18 Weather Cam


Thunder radar more information blitzortung!


Rain radar more information rain snow radar


Visit our other weather sites:

Template documentation
and downloads

And another site



Weather Underground History page Text

Daily Summary for November 28, 2017 Units:  Metric    English   Both
« Previous Day
Next Day »
Daily Weekly Monthly Yearly Custom
  High: Low: Average:
Temperature: -17.8 °C -15.4 °C -14.7 °C
Dew Point: -17.8 °C -15.9 °C -15.4 °C
Humidity: Humidity % 80 % 91 %
Wind Speed: 0 km/h 0 km/h 13.4 km/h
Wind Gust: 0 km/h - -
Wind:- - WSW
Pressure: 0 hPa 34154.6 hPa -
Precipitation: 231.14 mm    
Historical Graphs
 
 
Tabular Data for November 28, 2017
Time Temperature Dew Point Pressure Wind Wind Speed Wind Gust Humidity Rainfall Rate (Hourly)
-17.8 °C -17.8 °C 0 hPa Calm     Humidity % 0 mm
00:02 -14.1 °C -15.7 °C 34476.3 hPa SW 18.2 km/h 41.4 km/h 82 % 0 mm
00:12 -14.1 °C -15.7 °C 34476.3 hPa SW 25.9 km/h 44.1 km/h 82 % 0 mm
00:17 -14.1 °C -15.7 °C 34476.3 hPa WSW 23.3 km/h 46.7 km/h 82 % 0 mm
00:22 -14.1 °C -15.7 °C 34462.7 hPa SW 44.1 km/h 46.7 km/h 82 % 0 mm
00:27 -14.1 °C -15.7 °C 34462.7 hPa SW 15.6 km/h 46.7 km/h 82 % 0 mm
00:32 -14.1 °C -15.7 °C 34462.7 hPa WSW 33.6 km/h 46.7 km/h 82 % 0 mm
00:37 -14.1 °C -15.7 °C 34462.7 hPa West 15.6 km/h 46.7 km/h 82 % 0 mm
00:42 -14.1 °C -15.7 °C 34462.7 hPa SW 18.2 km/h 49.2 km/h 82 % 0 mm
00:52 -14.1 °C -15.7 °C 34452.6 hPa SW 28.5 km/h 49.2 km/h 82 % 0 mm
00:57 -14.1 °C -15.7 °C 34452.6 hPa WSW 20.8 km/h 44.1 km/h 82 % 0 mm
01:02 -14.1 °C -15.7 °C 34452.6 hPa SW 15.6 km/h 44.1 km/h 81 % 0 mm
01:12 -14 °C -15.7 °C 34442.4 hPa SW 23.3 km/h 41.4 km/h 81 % 0 mm
01:17 -14 °C -15.7 °C 34442.4 hPa South 18.2 km/h 44.1 km/h 81 % 0 mm
01:22 -14 °C -15.7 °C 34442.4 hPa WSW 28.5 km/h 44.1 km/h 81 % 0 mm
01:32 -13.9 °C -15.7 °C 34442.4 hPa SW 20.8 km/h 44.1 km/h 80 % 0 mm
01:37 -14 °C -15.7 °C 34442.4 hPa SSW 7.7 km/h 36.2 km/h 81 % 0 mm
01:42 -14 °C -15.7 °C 34442.4 hPa SSW 23.3 km/h 36.2 km/h 81 % 0 mm
01:47 -14 °C -15.7 °C 34428.8 hPa SSW 15.6 km/h 36.2 km/h 81 % 0 mm
01:52 -14 °C -15.7 °C 34428.8 hPa WSW 18.2 km/h 36.2 km/h 81 % 0 mm
02:02 -14 °C -15.7 °C 34428.8 hPa SW 20.8 km/h 36.2 km/h 81 % 0 mm
02:12 -14.1 °C -15.7 °C 34418.7 hPa SW 28.5 km/h 33.6 km/h 81 % 0 mm
02:17 -14.1 °C -15.7 °C 34418.7 hPa SW 12.9 km/h 36.2 km/h 82 % 0 mm
02:22 -14.1 °C -15.7 °C 34418.7 hPa SW 31.1 km/h 36.2 km/h 82 % 0 mm
02:27 -14.1 °C -15.7 °C 34418.7 hPa WSW 23.3 km/h 38.8 km/h 82 % 0 mm
02:32 -14.1 °C -15.7 °C 34418.7 hPa SW 18.2 km/h 38.8 km/h 82 % 0 mm
02:37 -14.2 °C -15.7 °C 34418.7 hPa SW 23.3 km/h 36.2 km/h 83 % 0 mm
02:42 -14.1 °C -15.6 °C 34418.7 hPa SW 25.9 km/h 36.2 km/h 83 % 0 mm
02:52 -14.1 °C -15.7 °C 34405.1 hPa SW 15.6 km/h 36.2 km/h 82 % 0 mm
02:57 -14.2 °C -15.7 °C 34405.1 hPa SSW 18.2 km/h 36.2 km/h 83 % 0 mm
03:02 -14.2 °C -15.7 °C 34405.1 hPa South 12.9 km/h 36.2 km/h 83 % 0 mm
03:07 -14.2 °C -15.7 °C 34395 hPa SW 25.9 km/h 36.2 km/h 83 % 0 mm
03:12 -14.2 °C -15.7 °C 34395 hPa SW 18.2 km/h 36.2 km/h 83 % 0 mm
03:17 -14.2 °C -15.7 °C 34395 hPa SSW 23.3 km/h 36.2 km/h 83 % 0 mm
03:22 -14.2 °C -15.7 °C 34395 hPa SW 31.1 km/h 36.2 km/h 83 % 0 mm
03:27 -14.2 °C -15.7 °C 34384.8 hPa SSW 28.5 km/h 36.2 km/h 83 % 0 mm
03:32 -14.2 °C -15.7 °C 34384.8 hPa SSW 20.8 km/h 36.2 km/h 83 % 0 mm
03:37 -14.2 °C -15.7 °C 34384.8 hPa SW 25.9 km/h 33.6 km/h 83 % 0 mm
03:42 -14.2 °C -15.7 °C 34384.8 hPa SW 31.1 km/h 33.6 km/h 83 % 0 mm
03:52 -14.1 °C -15.7 °C 34384.8 hPa WSW 20.8 km/h 36.2 km/h 82 % 0 mm
03:57 -14.1 °C -15.7 °C 34371.3 hPa SW 23.3 km/h 36.2 km/h 82 % 0 mm
04:02 -14.1 °C -15.6 °C 34371.3 hPa SW 18.2 km/h 36.2 km/h 83 % 0 mm
04:12 -14.1 °C -15.4 °C 34371.3 hPa WSW 5.1 km/h 36.2 km/h 84 % 0 mm
04:17 -14.1 °C -15.5 °C 34371.3 hPa SW 20.8 km/h 36.2 km/h 84 % 0 mm
04:22 -14.2 °C -15.4 °C 34371.3 hPa SW 25.9 km/h 36.2 km/h 85 % 0 mm
04:27 -14.2 °C -15.4 °C 34371.3 hPa SW 25.9 km/h 38.8 km/h 86 % 7.62 mm
04:32 -14.2 °C -15.3 °C 34361.1 hPa SW 18.2 km/h 38.8 km/h 87 % 7.62 mm
04:37 -14.3 °C -15.4 °C 34361.1 hPa SW 20.8 km/h 38.8 km/h 87 % 12.7 mm
04:47 -14.3 °C -15.3 °C 34347.6 hPa SSW 10.3 km/h 38.8 km/h 88 % 20.32 mm
04:52 -14.4 °C -15.3 °C 34347.6 hPa SW 25.9 km/h 38.8 km/h 89 % 20.32 mm
05:02 -14.4 °C -15.3 °C 34347.6 hPa SW 20.8 km/h 38.8 km/h 89 % 20.32 mm
05:12 -14.5 °C -15.3 °C 34347.6 hPa WSW 31.1 km/h 46.7 km/h 90 % 25.4 mm
05:17 -14.5 °C -15.3 °C 34347.6 hPa SW 28.5 km/h 41.4 km/h 90 % 25.4 mm
05:22 -14.6 °C -15.3 °C 34337.4 hPa SW 23.3 km/h 41.4 km/h 91 % 25.4 mm
05:27 -14.6 °C -15.3 °C 34337.4 hPa WSW 28.5 km/h 46.7 km/h 91 % 25.4 mm
05:32 -14.6 °C -15.3 °C 34337.4 hPa SW 28.5 km/h 46.7 km/h 91 % 25.4 mm
05:42 -14.6 °C -15.3 °C 34337.4 hPa SW 31.1 km/h 46.7 km/h 92 % 20.32 mm
05:47 -14.6 °C -15.3 °C 34327.3 hPa SSW 15.6 km/h 41.4 km/h 92 % 12.7 mm
05:52 -14.6 °C -15.3 °C 34337.4 hPa SSW 28.5 km/h 41.4 km/h 92 % 12.7 mm
05:57 -14.6 °C -15.2 °C 34327.3 hPa SW 5.1 km/h 36.2 km/h 93 % 20.32 mm
06:02 -14.6 °C -15.2 °C 34327.3 hPa SW 28.5 km/h 36.2 km/h 93 % 20.32 mm
06:12 -14.7 °C -15.2 °C 34337.4 hPa WSW 25.9 km/h 38.8 km/h 94 % 20.32 mm
06:17 -14.7 °C -15.2 °C 34337.4 hPa WSW 10.3 km/h 38.8 km/h 94 % 25.4 mm
06:22 -14.7 °C -15.2 °C 34337.4 hPa SW 12.9 km/h 38.8 km/h 94 % 25.4 mm
06:32 -14.7 °C -15.2 °C 34337.4 hPa South 5.1 km/h 36.2 km/h 94 % 33.02 mm
06:37 -14.7 °C -15.2 °C 34337.4 hPa West 5.1 km/h 36.2 km/h 94 % 33.02 mm
06:42 -14.7 °C -15.2 °C 34337.4 hPa WSW 12.9 km/h 31.1 km/h 94 % 38.1 mm
06:52 -14.7 °C -15.2 °C 34337.4 hPa West 7.7 km/h 31.1 km/h 94 % 38.1 mm
07:02 -14.7 °C -15.2 °C 34337.4 hPa West 18.2 km/h 23.3 km/h 94 % 45.72 mm
07:12 -14.8 °C -15.3 °C 34327.3 hPa SW 15.6 km/h 28.5 km/h 94 % 45.72 mm
07:17 -14.8 °C -15.3 °C 34327.3 hPa SW 10.3 km/h 25.9 km/h 94 % 38.1 mm
07:22 -14.8 °C -15.3 °C 34327.3 hPa WSW 12.9 km/h 25.9 km/h 94 % 38.1 mm
07:32 -14.8 °C -15.3 °C 34313.7 hPa WSW 23.3 km/h 25.9 km/h 94 % 38.1 mm
07:37 -14.8 °C -15.3 °C 34313.7 hPa SW 2.6 km/h 28.5 km/h 94 % 33.02 mm
07:42 -14.8 °C -15.3 °C 34313.7 hPa SW 15.6 km/h 28.5 km/h 94 % 33.02 mm
07:52 -14.8 °C -15.3 °C 34313.7 hPa WSW 7.7 km/h 28.5 km/h 94 % 33.02 mm
07:57 -14.8 °C -15.3 °C 34313.7 hPa SW 15.6 km/h 28.5 km/h 94 % 20.32 mm
08:02 -14.8 °C -15.3 °C 34303.6 hPa WSW 10.3 km/h 28.5 km/h 94 % 20.32 mm
08:12 -14.8 °C -15.3 °C 34303.6 hPa West 12.9 km/h 36.2 km/h 94 % 20.32 mm
08:17 -14.8 °C -15.3 °C 34303.6 hPa West 15.6 km/h 38.8 km/h 94 % 20.32 mm
08:22 -14.8 °C -15.3 °C 34303.6 hPa WSW 18.2 km/h 38.8 km/h 94 % 20.32 mm
08:32 -14.8 °C -15.3 °C 34303.6 hPa SSW 18.2 km/h 31.1 km/h 94 % 25.4 mm
08:42 -14.8 °C -15.3 °C 34303.6 hPa SW 25.9 km/h 33.6 km/h 94 % 20.32 mm
08:52 -14.8 °C -15.3 °C 34303.6 hPa WSW 12.9 km/h 36.2 km/h 94 % 20.32 mm
08:57 -14.8 °C -15.3 °C 34303.6 hPa WSW 12.9 km/h 36.2 km/h 94 % 25.4 mm
09:02 -14.8 °C -15.2 °C 34303.6 hPa SW 10.3 km/h 36.2 km/h 95 % 25.4 mm
09:07 -14.8 °C -15.2 °C 34303.6 hPa SW 18.2 km/h 28.5 km/h 95 % 25.4 mm
09:12 -14.8 °C -15.3 °C 34303.6 hPa SW 12.9 km/h 28.5 km/h 94 % 25.4 mm
09:17 -14.8 °C -15.3 °C 34293.4 hPa WSW 28.5 km/h 33.6 km/h 94 % 20.32 mm
09:22 -14.8 °C -15.3 °C 34293.4 hPa SW 20.8 km/h 33.6 km/h 94 % 20.32 mm
09:32 -14.8 °C -15.3 °C 34293.4 hPa WSW 18.2 km/h 38.8 km/h 94 % 20.32 mm
09:37 -14.8 °C -15.3 °C 34293.4 hPa SW 18.2 km/h 33.6 km/h 94 % 20.32 mm
09:42 -14.8 °C -15.3 °C 34293.4 hPa WSW 10.3 km/h 33.6 km/h 94 % 20.32 mm
09:47 -14.8 °C -15.3 °C 34293.4 hPa SW 25.9 km/h 41.4 km/h 94 % 25.4 mm
09:52 -14.8 °C -15.3 °C 34293.4 hPa West 23.3 km/h 41.4 km/h 94 % 25.4 mm
09:57 -14.8 °C -15.3 °C 34293.4 hPa WSW 15.6 km/h 41.4 km/h 94 % 20.32 mm
10:02 -14.8 °C -15.3 °C 34293.4 hPa WSW 38.8 km/h 41.4 km/h 94 % 20.32 mm
10:07 -14.8 °C -15.3 °C 34293.4 hPa WSW 20.8 km/h 41.4 km/h 94 % 20.32 mm
10:12 -14.8 °C -15.3 °C 34279.9 hPa SW 7.7 km/h 41.4 km/h 94 % 20.32 mm
10:17 -14.8 °C -15.3 °C 34279.9 hPa WSW 15.6 km/h 38.8 km/h 94 % 25.4 mm
10:22 -14.8 °C -15.3 °C 34279.9 hPa SW 12.9 km/h 38.8 km/h 94 % 25.4 mm
10:32 -14.8 °C -15.3 °C 34279.9 hPa WSW 18.2 km/h 38.8 km/h 94 % 20.32 mm
10:42 -14.8 °C -15.3 °C 34279.9 hPa WSW 31.1 km/h 38.8 km/h 94 % 20.32 mm
10:47 -14.8 °C -15.3 °C 34279.9 hPa WSW 12.9 km/h 33.6 km/h 94 % 20.32 mm
10:52 -14.8 °C -15.3 °C 34279.9 hPa SW 15.6 km/h 33.6 km/h 94 % 20.32 mm
10:57 -14.8 °C -15.3 °C 34279.9 hPa WSW 23.3 km/h 44.1 km/h 94 % 25.4 mm
11:02 -14.8 °C -15.3 °C 34279.9 hPa SW 2.6 km/h 44.1 km/h 94 % 25.4 mm
11:12 -14.8 °C -15.3 °C 34279.9 hPa WSW 20.8 km/h 36.2 km/h 94 % 20.32 mm
11:17 -14.8 °C -15.3 °C 34269.7 hPa SW 25.9 km/h 38.8 km/h 94 % 20.32 mm
11:22 -14.8 °C -15.3 °C 34269.7 hPa SSW 12.9 km/h 38.8 km/h 94 % 20.32 mm
11:27 -14.8 °C -15.3 °C 34269.7 hPa WSW 12.9 km/h 44.1 km/h 94 % 20.32 mm
11:32 -14.8 °C -15.3 °C 34269.7 hPa WSW 15.6 km/h 44.1 km/h 94 % 20.32 mm
11:37 -14.8 °C -15.3 °C 34269.7 hPa WSW 23.3 km/h 38.8 km/h 94 % 25.4 mm
11:42 -14.9 °C -15.4 °C 34256.2 hPa WSW 15.6 km/h 38.8 km/h 94 % 25.4 mm
11:52 -14.9 °C -15.3 °C 34256.2 hPa WSW 12.9 km/h 33.6 km/h 95 % 20.32 mm
11:57 -14.9 °C -15.3 °C 34256.2 hPa WSW 23.3 km/h 33.6 km/h 95 % 20.32 mm
12:02 -14.9 °C -15.3 °C 34256.2 hPa West 10.3 km/h 33.6 km/h 95 % 20.32 mm
12:12 -14.9 °C -15.3 °C 34256.2 hPa WSW 20.8 km/h 33.6 km/h 95 % 20.32 mm
12:17 -14.8 °C -15.2 °C 34246 hPa WSW 7.7 km/h 31.1 km/h 95 % 20.32 mm
12:22 -14.8 °C -15.2 °C 34246 hPa West 7.7 km/h 31.1 km/h 95 % 20.32 mm
12:32 -14.9 °C -15.3 °C 34246 hPa WSW 23.3 km/h 31.1 km/h 95 % 25.4 mm
12:37 -14.8 °C -15.2 °C 34246 hPa WSW 12.9 km/h 36.2 km/h 95 % 25.4 mm
12:42 -14.8 °C -15.2 °C 34235.8 hPa SW 5.1 km/h 36.2 km/h 95 % 25.4 mm
12:47 -14.8 °C -15.2 °C 34235.8 hPa SW 12.9 km/h 31.1 km/h 95 % 33.02 mm
12:52 -14.8 °C -15.2 °C 34235.8 hPa West 10.3 km/h 31.1 km/h 95 % 33.02 mm
12:57 -14.8 °C -15.2 °C 34235.8 hPa WSW 7.7 km/h 31.1 km/h 95 % 33.02 mm
13:02 -14.8 °C -15.2 °C 34235.8 hPa WSW 7.7 km/h 25.9 km/h 95 % 25.4 mm
13:12 -14.8 °C -15.2 °C 34222.3 hPa WSW 7.7 km/h 25.9 km/h 95 % 25.4 mm
13:17 -14.8 °C -15.2 °C 34222.3 hPa SW 7.7 km/h 23.3 km/h 95 % 20.32 mm
13:22 -14.8 °C -15.2 °C 34222.3 hPa West 7.7 km/h 23.3 km/h 95 % 20.32 mm
13:32 -14.8 °C -15.2 °C 34212.1 hPa WSW 5.1 km/h 20.8 km/h 95 % 12.7 mm
13:37 -14.8 °C -15.2 °C 34212.1 hPa WSW 10.3 km/h 20.8 km/h 95 % 12.7 mm
13:42 -14.8 °C -15.2 °C 34212.1 hPa SW 5.1 km/h 20.8 km/h 95 % 12.7 mm
13:47 -14.8 °C -15.2 °C 34212.1 hPa West 2.6 km/h 18.2 km/h 95 % 7.62 mm
13:52 -14.7 °C -15.1 °C 34212.1 hPa WSW 2.6 km/h 18.2 km/h 95 % 7.62 mm
14:02 -14.7 °C -15.1 °C 34212.1 hPa SW 10.3 km/h 18.2 km/h 95 % 7.62 mm
14:17 -14.7 °C -15.2 °C 34198.6 hPa SW 10.3 km/h 20.8 km/h 94 % 0 mm
14:22 -14.7 °C -15.2 °C 34198.6 hPa West 7.7 km/h 20.8 km/h 94 % 0 mm
14:32 -14.6 °C -15.1 °C 34198.6 hPa West 5.1 km/h 20.8 km/h 94 % 0 mm
14:37 -14.6 °C -15.1 °C 34198.6 hPa West 12.9 km/h 23.3 km/h 94 % 0 mm
14:42 -14.6 °C -15.1 °C 34198.6 hPa West 7.7 km/h 23.3 km/h 94 % 0 mm
14:52 -14.6 °C -15.1 °C 34188.4 hPa West 7.7 km/h 23.3 km/h 94 % 0 mm
15:02 -14.6 °C -15.1 °C 34198.6 hPa West 7.7 km/h 25.9 km/h 94 % 0 mm
15:07 -14.5 °C -15 °C 34188.4 hPa West 10.3 km/h 15.6 km/h 94 % 0 mm
15:12 -14.5 °C -15 °C 34188.4 hPa WSW 2.6 km/h 15.6 km/h 94 % 0 mm
15:22 -14.4 °C -14.9 °C 34188.4 hPa West 7.7 km/h 18.2 km/h 94 % 0 mm
15:32 -14.4 °C -14.9 °C 34188.4 hPa WSW 12.9 km/h 18.2 km/h 94 % 0 mm
15:37 -14.4 °C -15 °C 34188.4 hPa WSW 12.9 km/h 20.8 km/h 93 % 0 mm
15:42 -14.5 °C -15.1 °C 34188.4 hPa SW 7.7 km/h 20.8 km/h 93 % 0 mm
15:47 -14.5 °C -15.1 °C 34188.4 hPa SW 7.7 km/h 15.6 km/h 93 % 0 mm
15:52 -14.6 °C -15.1 °C 34188.4 hPa Calm   15.6 km/h 93 % 0 mm
16:02 -14.6 °C -15.1 °C 34188.4 hPa Calm   15.6 km/h 94 % 0 mm
16:07 -14.5 °C -15 °C 34188.4 hPa WSW 2.6 km/h 12.9 km/h 94 % 0 mm
16:17 -14.5 °C -15 °C 34188.4 hPa Calm   10.3 km/h 94 % 0 mm
16:22 -14.5 °C -15.1 °C 34188.4 hPa Calm   10.3 km/h 93 % 0 mm
16:27 -14.4 °C -14.9 °C 34188.4 hPa SW 2.6 km/h 5.1 km/h 94 % 0 mm
16:42 -14.6 °C -15.2 °C 34188.4 hPa SW 2.6 km/h 7.7 km/h 93 % 0 mm
16:47 -14.7 °C -15.2 °C 34178.3 hPa Calm   7.7 km/h 93 % 0 mm
16:57 -14.8 °C -15.3 °C 34178.3 hPa WSW 5.1 km/h 7.7 km/h 94 % 0 mm
17:02 -14.8 °C -15.3 °C 34178.3 hPa Calm   7.7 km/h 94 % 0 mm
17:07 -14.9 °C -15.4 °C 34178.3 hPa West 2.6 km/h 7.7 km/h 94 % 0 mm
17:17 -14.9 °C -15.4 °C 34178.3 hPa West 7.7 km/h 20.8 km/h 94 % 0 mm
17:22 -14.9 °C -15.4 °C 34178.3 hPa SW 7.7 km/h 20.8 km/h 94 % 0 mm
17:32 -14.9 °C -15.4 °C 34178.3 hPa WSW 5.1 km/h 20.8 km/h 94 % 0 mm
17:37 -14.9 °C -15.4 °C 34188.4 hPa SW 7.7 km/h 23.3 km/h 94 % 0 mm
17:42 -14.9 °C -15.4 °C 34178.3 hPa SW 2.6 km/h 23.3 km/h 94 % 0 mm
17:52 -14.9 °C -15.4 °C 34178.3 hPa SW 5.1 km/h 12.9 km/h 94 % 0 mm
18:12 -14.9 °C -15.4 °C 34178.3 hPa SSW 7.7 km/h 20.8 km/h 94 % 0 mm
18:22 -15.1 °C -15.4 °C 34178.3 hPa SW 10.3 km/h 18.2 km/h 95 % 0 mm
18:27 -15.1 °C -15.5 °C 34178.3 hPa SSW 10.3 km/h 18.2 km/h 95 % 0 mm
18:32 -15.2 °C -15.6 °C 34178.3 hPa SSW 7.7 km/h 18.2 km/h 95 % 0 mm
18:42 -15.2 °C -15.6 °C 34178.3 hPa SSW 5.1 km/h 12.9 km/h 95 % 0 mm
18:47 -15.2 °C -15.5 °C 34178.3 hPa SW 2.6 km/h 20.8 km/h 96 % 0 mm
18:52 -15.1 °C -15.4 °C 34178.3 hPa SW 15.6 km/h 20.8 km/h 96 % 0 mm
19:02 -15.1 °C -15.4 °C 34178.3 hPa SSW 12.9 km/h 20.8 km/h 96 % 0 mm
19:07 -15.1 °C -15.4 °C 34178.3 hPa SW 5.1 km/h 20.8 km/h 96 % 0 mm
19:17 -15.1 °C -15.4 °C 34178.3 hPa SW 7.7 km/h 20.8 km/h 96 % 0 mm
19:22 -15.1 °C -15.4 °C 34178.3 hPa SW 12.9 km/h 20.8 km/h 96 % 0 mm
19:32 -15.1 °C -15.4 °C 34178.3 hPa SW 7.7 km/h 25.9 km/h 96 % 0 mm
19:42 -15.1 °C -15.4 °C 34178.3 hPa WNW 5.1 km/h 23.3 km/h 96 % 0 mm
19:47 -15.1 °C -15.4 °C 34178.3 hPa SW 10.3 km/h 23.3 km/h 96 % 0 mm
19:57 -15.1 °C -15.4 °C 34178.3 hPa WSW 23.3 km/h 28.5 km/h 95 % 0 mm
20:02 -15.1 °C -15.4 °C 34178.3 hPa WSW 20.8 km/h 28.5 km/h 95 % 0 mm
20:07 -15.1 °C -15.4 °C 34178.3 hPa West 10.3 km/h 28.5 km/h 95 % 0 mm
20:12 -15.1 °C -15.4 °C 34178.3 hPa West 7.7 km/h 28.5 km/h 95 % 0 mm
20:17 -15.1 °C -15.4 °C 34178.3 hPa West 12.9 km/h 25.9 km/h 95 % 7.62 mm
20:32 -15.1 °C -15.4 °C 34164.7 hPa SSW 5.1 km/h 15.6 km/h 95 % 7.62 mm
20:42 -15.1 °C -15.5 °C 34178.3 hPa WSW 12.9 km/h 18.2 km/h 95 % 7.62 mm
20:52 -15.2 °C -15.6 °C 34164.7 hPa SSW 10.3 km/h 12.9 km/h 95 % 7.62 mm
20:57 -15.2 °C -15.6 °C 34164.7 hPa SW 5.1 km/h 18.2 km/h 95 % 7.62 mm
21:02 -15.2 °C -15.6 °C 34164.7 hPa West 2.6 km/h 18.2 km/h 95 % 7.62 mm
21:12 -15.1 °C -15.5 °C 34164.7 hPa WSW 2.6 km/h 18.2 km/h 95 % 7.62 mm
21:17 -15.1 °C -15.5 °C 34164.7 hPa Calm   18.2 km/h 95 % 0 mm
21:22 -15.1 °C -15.5 °C 34164.7 hPa SW 2.6 km/h 18.2 km/h 95 % 0 mm
21:32 -15.2 °C -15.6 °C 34164.7 hPa WSW 5.1 km/h 12.9 km/h 95 % 0 mm
21:37 -15.2 °C -15.6 °C 34164.7 hPa SW 2.6 km/h 12.9 km/h 95 % 0 mm
21:42 -15.2 °C -15.6 °C 34164.7 hPa WSW 2.6 km/h 12.9 km/h 95 % 0 mm
21:47 -15.2 °C -15.6 °C 34164.7 hPa SW 5.1 km/h 10.3 km/h 95 % 0 mm
21:52 -15.2 °C -15.6 °C 34164.7 hPa WSW 7.7 km/h 10.3 km/h 95 % 0 mm
21:57 -15.2 °C -15.6 °C 34154.6 hPa West 7.7 km/h 15.6 km/h 95 % 0 mm
22:02 -15.2 °C -15.6 °C 34154.6 hPa WSW 2.6 km/h 15.6 km/h 95 % 0 mm
22:07 -15.2 °C -15.6 °C 34164.7 hPa WSW 5.1 km/h 15.6 km/h 95 % 0 mm
22:17 -15.2 °C -15.6 °C 34164.7 hPa West 2.6 km/h 10.3 km/h 95 % 0 mm
22:27 -15.2 °C -15.6 °C 34164.7 hPa SW 5.1 km/h 10.3 km/h 95 % 0 mm
22:37 -15.2 °C -15.6 °C 34164.7 hPa WSW 5.1 km/h 10.3 km/h 95 % 0 mm
22:42 -15.2 °C -15.6 °C 34164.7 hPa Calm   10.3 km/h 95 % 0 mm
22:52 -15.2 °C -15.6 °C 34164.7 hPa West 2.6 km/h 7.7 km/h 95 % 0 mm
23:02 -15.2 °C -15.6 °C 34164.7 hPa West 5.1 km/h 5.1 km/h 95 % 0 mm
23:07 -15.2 °C -15.6 °C 34164.7 hPa Calm   5.1 km/h 95 % 0 mm
23:12 -15.2 °C -15.6 °C 34164.7 hPa West 5.1 km/h 5.1 km/h 95 % 0 mm
23:17 -15.2 °C -15.6 °C 34164.7 hPa Calm   5.1 km/h 95 % 0 mm
23:22 -15.2 °C -15.6 °C 34164.7 hPa Calm   5.1 km/h 95 % 0 mm
23:27 -15.2 °C -15.6 °C 34164.7 hPa WNW 2.6 km/h 5.1 km/h 95 % 0 mm
23:32 -15.3 °C -15.7 °C 34164.7 hPa West 2.6 km/h 5.1 km/h 95 % 0 mm
23:42 -15.3 °C -15.8 °C 34164.7 hPa WSW 2.6 km/h 7.7 km/h 94 % 0 mm
23:52 -15.3 °C -15.8 °C 34164.7 hPa West 2.6 km/h 5.1 km/h 94 % 0 mm
23:57 -15.4 °C -15.9 °C 34164.7 hPa WNW 5.1 km/h 7.7 km/h 94 % 0 mm
Meteo18
Compliments of Weather Underground - 4 mb

Script developed by  Jim McMurry - jmcmurry@mwt.net Adapted for the template by  Wim van der Kuil - Leuven-Template.eu

You find our weather info also at:

European Weather Network

Weather Underground

Equipment we use:

Weather-station
Davis Vue

Weather-program
Meteobridge

Weather-server
Raspberry PI 2 B+

Provider
1 and 1

Davis Vue

Meteobridge

Raspberry PI 2 B+

1 and 1